User: anonymous
Location: Langangen
(59.1000°N, 9.8000°E)
Time: 11:34:20
(UTC+02:00)
Language:

Iridium 60 - Orbit

View from above orbital plane
View from above orbital plane
View from above satellite
View from above satellite

Ground track
Ground track

The orbit data is extracted from the following two-line orbital elements,

1 25276U 98019E   14259.44606474  .00000426  00000-0  14505-3 0  9614
2 25276 086.4007 347.0062 0002322 110.5445 249.6000 14.34217424862054
Epoch (UTC): 16 September 2014 10:42:19
Eccentricity: 0.0002322
inclination: 86.4007°
perigee height: 776 km
apogee height: 779 km
right ascension of ascending node: 347.0062°
argument of perigee: 110.5445°
revolutions per day: 14.34217424
mean anomaly at epoch: 249.6000°
orbit number at epoch: 86205

The dashed part of the orbit path shows where the satellite is in the earth's shadow,  

DLR